This is the latest recevied weather packets stored in our database for station/object 4S6DRJ-13. If no packets are shown the sender has not sent any weather packets the latest 10 day(s).
| Time | Temp. | Humidity | Pressure | Rain* | Wind** | Luminosity | Snow |
|---|---|---|---|---|---|---|---|
| 1788054892 | 28.89° C | 81% | 1009.9 hPa | 0 mm | 0.89 m/s, 250° | 202 W/m² | - |
| 1788054831 | 28.89° C | 81% | 1009.9 hPa | 0 mm | 1.34 m/s, 277° | 204 W/m² | - |
| 1788054770 | 28.89° C | 81% | 1009.8 hPa | 0 mm | 1.34 m/s, 291° | 205 W/m² | - |
| 1788054709 | 28.33° C | 81% | 1009.8 hPa | 0 mm | 1.79 m/s, 206° | 202 W/m² | - |
| 1788054648 | 28.33° C | 81% | 1009.7 hPa | 0 mm | 0.89 m/s, 196° | 199 W/m² | - |
| 1788054587 | 28.33° C | 81% | 1009.7 hPa | 0 mm | 0.89 m/s, 241° | 200 W/m² | - |
| 1788054526 | 28.33° C | 81% | 1009.7 hPa | 0 mm | 0.89 m/s, 231° | 205 W/m² | - |
| 1788054465 | 28.33° C | 81% | 1009.6 hPa | 0 mm | 2.24 m/s, 228° | 207 W/m² | - |
| 1788054404 | 28.33° C | 81% | 1009.7 hPa | 0 mm | 1.34 m/s, 196° | 203 W/m² | - |
| 1788054344 | 28.33° C | 81% | 1009.7 hPa | 0 mm | 0.89 m/s, 263° | 199 W/m² | - |
| 1788054282 | 28.33° C | 81% | 1009.6 hPa | 0 mm | 1.79 m/s, 274° | 197 W/m² | - |
| 1788054221 | 28.33° C | 81% | 1009.6 hPa | 0 mm | 0.89 m/s, 176° | 199 W/m² | - |
| 1788054160 | 28.33° C | 81% | 1009.8 hPa | 0 mm | 1.34 m/s, 245° | 199 W/m² | - |
| 1788054099 | 28.33° C | 81% | 1009.5 hPa | 0 mm | 1.34 m/s, 236° | 200 W/m² | - |
| 1788054038 | 28.33° C | 81% | 1009.8 hPa | 0 mm | 0.89 m/s, 225° | 198 W/m² | - |
| 1788053977 | 28.33° C | 81% | 1009.6 hPa | 0 mm | 1.79 m/s, 253° | 193 W/m² | - |
| 1788053916 | 28.33° C | 81% | 1009.7 hPa | 0 mm | 1.34 m/s, 249° | 189 W/m² | - |
| 1788053855 | 28.33° C | 81% | 1009.6 hPa | 0 mm | 1.34 m/s, 250° | 185 W/m² | - |
| 1788053794 | 28.33° C | 81% | 1009.6 hPa | 0 mm | 0.89 m/s, 255° | 183 W/m² | - |
| 1788053733 | 28.33° C | 81% | 1009.8 hPa | 0 mm | 0 m/s | 178 W/m² | - |
| 1788053672 | 28.33° C | 81% | 1009.6 hPa | 0 mm | 0.45 m/s, 230° | 177 W/m² | - |
| 1788053611 | 28.33° C | 81% | 1009.7 hPa | 0 mm | 0 m/s | 175 W/m² | - |
| 1788053550 | 28.33° C | 81% | 1009.6 hPa | 0 mm | 0.89 m/s, 241° | 171 W/m² | - |
| 1788053489 | 28.33° C | 81% | 1009.6 hPa | 0 mm | 0.45 m/s, 305° | 168 W/m² | - |
| 1788053428 | 28.33° C | 81% | 1009.7 hPa | 0 mm | 0.89 m/s, 207° | 156 W/m² | - |
* Rain latest hour (hover to see other rain measurements)
** Current wind speed in m/s (hover to see current wind gust speed)